timestamp,wind_dir_avg,wind_spd_max_dir,wind_spd_avg,wind_spd_gust,battery_voltage,lat,long
2018-01-01 00:00:00+00:00,279.0,280.0,12.76,15.4,,47.59359,-54.27349
2018-01-01 00:10:00+00:00,279.0,280.0,11.64,13.54,,47.59359,-54.27349
2018-01-01 00:20:00+00:00,272.0,270.0,10.78,12.34,,47.59359,-54.27349
2018-01-01 00:30:00+00:00,278.0,281.0,11.34,13.4,,47.59359,-54.27349
2018-01-01 00:40:00+00:00,276.0,283.0,10.8,12.57,,47.59359,-54.27349
2018-01-01 00:50:00+00:00,269.0,272.0,11.65,13.73,,47.59359,-54.27349
2018-01-01 01:00:00+00:00,274.0,279.0,11.24,12.27,,47.59359,-54.27349
2018-01-01 01:10:00+00:00,266.0,267.0,12.17,13.46,,47.59359,-54.27349
2018-01-01 01:20:00+00:00,263.0,258.0,9.49,11.06,,47.59359,-54.27349
2018-01-01 01:30:00+00:00,259.0,267.0,11.22,14.11,,47.59359,-54.27349
2018-01-01 01:40:00+00:00,269.0,271.0,11.58,13.68,,47.59359,-54.27349
2018-01-01 01:50:00+00:00,264.0,261.0,11.72,13.37,,47.59359,-54.27349
2018-01-01 02:00:00+00:00,270.0,263.0,12.69,14.81,,47.59359,-54.27349
2018-01-01 02:10:00+00:00,267.0,265.0,11.14,12.71,,47.59359,-54.27349
2018-01-01 02:20:00+00:00,282.0,284.0,10.12,12.18,,47.59359,-54.27349
2018-01-01 02:30:00+00:00,280.0,282.0,9.17,11.02,,47.59359,-54.27349
2018-01-01 02:40:00+00:00,277.0,279.0,8.56,10.27,,47.59359,-54.27349
2018-01-01 02:50:00+00:00,276.0,274.0,9.87,11.37,,47.59359,-54.27349
2018-01-01 03:00:00+00:00,282.0,282.0,10.43,11.8,,47.59359,-54.27349
2018-01-01 03:10:00+00:00,287.0,286.0,9.54,11.61,,47.59359,-54.27349
2018-01-01 03:20:00+00:00,288.0,286.0,9.99,10.95,,47.59359,-54.27349
2018-01-01 03:30:00+00:00,284.0,290.0,9.36,10.92,,47.59359,-54.27349
2018-01-01 03:40:00+00:00,281.0,280.0,7.88,9.3,,47.59359,-54.27349
2018-01-01 03:50:00+00:00,288.0,294.0,8.29,10.25,,47.59359,-54.27349
2018-01-01 04:00:00+00:00,285.0,285.0,8.39,9.85,,47.59359,-54.27349
2018-01-01 04:10:00+00:00,261.0,270.0,8.2,10.07,,47.59359,-54.27349
2018-01-01 04:20:00+00:00,268.0,257.0,6.98,8.88,,47.59359,-54.27349
2018-01-01 04:30:00+00:00,275.0,277.0,7.28,8.68,,47.59359,-54.27349
2018-01-01 04:40:00+00:00,275.0,275.0,8.79,10.15,,47.59359,-54.27349
2018-01-01 04:50:00+00:00,271.0,270.0,8.32,10.0,,47.59359,-54.27349
2018-01-01 05:00:00+00:00,251.0,253.0,9.43,10.83,,47.59359,-54.27349
2018-01-01 05:10:00+00:00,258.0,252.0,10.65,12.33,,47.59359,-54.27349
2018-01-01 05:20:00+00:00,249.0,253.0,9.66,11.54,,47.59359,-54.27349
2018-01-01 05:30:00+00:00,258.0,254.0,10.98,12.06,,47.59359,-54.27349
2018-01-01 05:40:00+00:00,259.0,261.0,11.98,13.41,,47.59359,-54.27349
2018-01-01 05:50:00+00:00,267.0,272.0,11.24,12.79,,47.59359,-54.27349
2018-01-01 06:00:00+00:00,269.0,274.0,9.33,11.25,,47.59359,-54.27349
2018-01-01 06:10:00+00:00,266.0,266.0,11.37,12.78,,47.59359,-54.27349
2018-01-01 06:20:00+00:00,263.0,262.0,10.32,11.93,,47.59359,-54.27349
2018-01-01 06:30:00+00:00,261.0,260.0,10.14,11.45,,47.59359,-54.27349
2018-01-01 06:40:00+00:00,265.0,262.0,8.44,10.12,,47.59359,-54.27349
2018-01-01 06:50:00+00:00,264.0,266.0,8.07,10.13,,47.59359,-54.27349
2018-01-01 07:00:00+00:00,252.0,253.0,7.45,8.96,,47.59359,-54.27349
2018-01-01 07:10:00+00:00,264.0,272.0,7.69,9.53,,47.59359,-54.27349
2018-01-01 07:20:00+00:00,250.0,252.0,9.15,10.9,,47.59359,-54.27349
2018-01-01 07:30:00+00:00,255.0,245.0,9.45,10.97,,47.59359,-54.27349
2018-01-01 07:40:00+00:00,259.0,264.0,9.49,10.92,,47.59359,-54.27349
2018-01-01 07:50:00+00:00,257.0,252.0,8.23,9.59,,47.59359,-54.27349
2018-01-01 08:00:00+00:00,270.0,273.0,8.34,9.82,,47.59359,-54.27349
2018-01-01 08:10:00+00:00,258.0,258.0,11.62,12.7,,47.59359,-54.27349
2018-01-01 08:20:00+00:00,268.0,270.0,13.49,15.94,,47.59359,-54.27349
2018-01-01 08:30:00+00:00,258.0,255.0,12.55,14.86,,47.59359,-54.27349
2018-01-01 08:40:00+00:00,258.0,259.0,12.61,14.12,,47.59359,-54.27349
2018-01-01 08:50:00+00:00,260.0,264.0,10.73,13.28,,47.59359,-54.27349
2018-01-01 09:00:00+00:00,257.0,253.0,10.88,12.62,,47.59359,-54.27349
2018-01-01 09:10:00+00:00,260.0,266.0,12.45,13.88,,47.59359,-54.27349
2018-01-01 09:20:00+00:00,265.0,260.0,13.66,16.4,,47.59359,-54.27349
2018-01-01 09:30:00+00:00,264.0,268.0,12.51,14.04,,47.59359,-54.27349
2018-01-01 09:40:00+00:00,257.0,260.0,12.32,14.56,,47.59359,-54.27349
2018-01-01 09:50:00+00:00,257.0,256.0,12.49,13.96,,47.59359,-54.27349
2018-01-01 10:00:00+00:00,255.0,257.0,12.36,14.23,,47.59359,-54.27349
2018-01-01 10:10:00+00:00,252.0,254.0,10.93,13.38,,47.59359,-54.27349
2018-01-01 10:20:00+00:00,259.0,257.0,13.12,14.8,,47.59359,-54.27349
2018-01-01 10:30:00+00:00,250.0,252.0,11.62,12.91,,47.59359,-54.27349
2018-01-01 10:40:00+00:00,253.0,253.0,12.32,13.51,,47.59359,-54.27349
2018-01-01 10:50:00+00:00,247.0,242.0,9.7,11.12,,47.59359,-54.27349
2018-01-01 11:00:00+00:00,234.0,239.0,9.76,11.43,,47.59359,-54.27349
2018-01-01 11:10:00+00:00,242.0,241.0,8.67,10.51,,47.59359,-54.27349
2018-01-01 11:20:00+00:00,234.0,233.0,10.32,12.29,,47.59359,-54.27349
2018-01-01 11:30:00+00:00,236.0,236.0,9.5,10.51,,47.59359,-54.27349
2018-01-01 11:40:00+00:00,245.0,232.0,8.03,9.83,,47.59359,-54.27349
2018-01-01 11:50:00+00:00,240.0,238.0,10.26,13.73,,47.59359,-54.27349
2018-01-01 12:00:00+00:00,263.0,263.0,6.91,8.18,,47.59359,-54.27349
2018-01-01 12:10:00+00:00,246.0,243.0,6.25,7.14,,47.59359,-54.27349
2018-01-01 12:20:00+00:00,243.0,238.0,6.79,7.96,,47.59359,-54.27349
2018-01-01 12:30:00+00:00,258.0,260.0,9.36,11.06,,47.59359,-54.27349
2018-01-01 12:40:00+00:00,259.0,262.0,10.08,12.33,,47.59359,-54.27349
2018-01-01 12:50:00+00:00,271.0,263.0,11.35,13.99,,47.59359,-54.27349
2018-01-01 13:00:00+00:00,276.0,278.0,11.42,13.34,,47.59359,-54.27349
2018-01-01 13:10:00+00:00,287.0,286.0,10.38,11.88,,47.59359,-54.27349
2018-01-01 13:20:00+00:00,297.0,295.0,9.76,12.16,,47.59359,-54.27349
2018-01-01 13:30:00+00:00,297.0,294.0,9.36,11.01,,47.59359,-54.27349
2018-01-01 13:40:00+00:00,303.0,306.0,9.55,10.52,,47.59359,-54.27349
2018-01-01 13:50:00+00:00,291.0,291.0,8.95,9.65,,47.59359,-54.27349
2018-01-01 14:00:00+00:00,292.0,287.0,8.29,9.81,,47.59359,-54.27349
2018-01-01 14:10:00+00:00,293.0,295.0,7.77,8.88,,47.59359,-54.27349
2018-01-01 14:20:00+00:00,291.0,286.0,9.06,10.76,,47.59359,-54.27349
2018-01-01 14:30:00+00:00,285.0,284.0,8.07,9.25,,47.59359,-54.27349
2018-01-01 14:40:00+00:00,283.0,282.0,8.31,9.83,,47.59359,-54.27349
2018-01-01 14:50:00+00:00,275.0,282.0,8.79,10.32,,47.59359,-54.27349
2018-01-01 15:00:00+00:00,261.0,263.0,7.95,8.81,,47.59359,-54.27349
2018-01-01 15:10:00+00:00,257.0,258.0,8.48,9.94,,47.59359,-54.27349
2018-01-01 15:20:00+00:00,272.0,274.0,9.38,10.63,,47.59359,-54.27349
2018-01-01 15:30:00+00:00,269.0,273.0,8.09,9.33,,47.59359,-54.27349
2018-01-01 15:40:00+00:00,274.0,269.0,9.97,11.26,,47.59359,-54.27349
2018-01-01 15:50:00+00:00,277.0,273.0,9.37,11.56,,47.59359,-54.27349
2018-01-01 16:00:00+00:00,278.0,282.0,9.33,11.6,,47.59359,-54.27349
2018-01-01 16:10:00+00:00,270.0,267.0,9.66,11.15,,47.59359,-54.27349
2018-01-01 16:20:00+00:00,278.0,272.0,9.05,10.06,,47.59359,-54.27349
2018-01-01 16:30:00+00:00,273.0,272.0,8.87,10.5,,47.59359,-54.27349
2018-01-01 16:40:00+00:00,282.0,288.0,10.25,12.02,,47.59359,-54.27349
2018-01-01 16:50:00+00:00,282.0,285.0,10.19,12.44,,47.59359,-54.27349
2018-01-01 17:00:00+00:00,286.0,289.0,9.96,13.65,,47.59359,-54.27349
2018-01-01 17:10:00+00:00,281.0,285.0,9.21,10.43,,47.59359,-54.27349
2018-01-01 17:20:00+00:00,287.0,293.0,9.34,11.43,,47.59359,-54.27349
2018-01-01 17:30:00+00:00,290.0,284.0,9.44,11.56,,47.59359,-54.27349
2018-01-01 17:40:00+00:00,294.0,289.0,8.8,9.78,,47.59359,-54.27349
2018-01-01 17:50:00+00:00,308.0,310.0,8.99,9.88,,47.59359,-54.27349
2018-01-01 18:00:00+00:00,304.0,307.0,8.21,9.12,,47.59359,-54.27349
2018-01-01 18:10:00+00:00,303.0,300.0,7.52,8.75,,47.59359,-54.27349
2018-01-01 18:20:00+00:00,302.0,293.0,6.78,7.53,,47.59359,-54.27349
2018-01-01 18:30:00+00:00,299.0,310.0,7.64,8.78,,47.59359,-54.27349
2018-01-01 18:40:00+00:00,287.0,292.0,7.13,7.92,,47.59359,-54.27349
2018-01-01 18:50:00+00:00,281.0,279.0,7.23,7.95,,47.59359,-54.27349
2018-01-01 19:00:00+00:00,291.0,293.0,5.63,6.52,,47.59359,-54.27349
2018-01-01 19:10:00+00:00,283.0,282.0,4.97,6.08,,47.59359,-54.27349
2018-01-01 19:20:00+00:00,275.0,280.0,6.02,7.39,,47.59359,-54.27349
2018-01-01 19:30:00+00:00,282.0,283.0,6.38,7.17,,47.59359,-54.27349
2018-01-01 19:40:00+00:00,265.0,266.0,4.87,5.77,,47.59359,-54.27349
2018-01-01 19:50:00+00:00,276.0,279.0,4.94,5.73,,47.59359,-54.27349
2018-01-01 20:00:00+00:00,277.0,269.0,6.39,7.31,,47.59359,-54.27349
2018-01-01 20:10:00+00:00,265.0,258.0,5.06,6.12,,47.59359,-54.27349
2018-01-01 20:20:00+00:00,272.0,275.0,6.21,7.23,,47.59359,-54.27349
2018-01-01 20:30:00+00:00,267.0,260.0,5.99,7.34,,47.59359,-54.27349
2018-01-01 20:40:00+00:00,266.0,265.0,6.48,7.25,,47.59359,-54.27349
2018-01-01 20:50:00+00:00,273.0,280.0,5.88,7.07,,47.59359,-54.27349
2018-01-01 21:00:00+00:00,271.0,272.0,5.6,6.6,,47.59359,-54.27349
2018-01-01 21:10:00+00:00,274.0,275.0,6.81,7.52,,47.59359,-54.27349
2018-01-01 21:20:00+00:00,269.0,268.0,5.81,7.9,,47.59359,-54.27349
2018-01-01 21:30:00+00:00,265.0,266.0,6.7,8.11,,47.59359,-54.27349
2018-01-01 21:40:00+00:00,264.0,264.0,6.26,7.36,,47.59359,-54.27349
2018-01-01 21:50:00+00:00,252.0,257.0,6.54,7.5,,47.59359,-54.27349
2018-01-01 22:00:00+00:00,242.0,243.0,6.58,7.9,,47.59359,-54.27349
2018-01-01 22:10:00+00:00,242.0,249.0,6.11,7.32,,47.59359,-54.27349
2018-01-01 22:20:00+00:00,239.0,233.0,6.76,7.92,,47.59359,-54.27349
2018-01-01 22:30:00+00:00,249.0,255.0,8.02,9.43,,47.59359,-54.27349
2018-01-01 22:40:00+00:00,249.0,252.0,8.77,10.0,,47.59359,-54.27349
2018-01-01 22:50:00+00:00,249.0,256.0,10.65,11.55,,47.59359,-54.27349
2018-01-01 23:00:00+00:00,252.0,258.0,7.92,9.42,,47.59359,-54.27349
2018-01-01 23:10:00+00:00,259.0,251.0,8.64,9.91,,47.59359,-54.27349
2018-01-01 23:20:00+00:00,250.0,245.0,9.02,10.83,,47.59359,-54.27349
2018-01-01 23:30:00+00:00,255.0,259.0,8.19,9.76,,47.59359,-54.27349
2018-01-01 23:40:00+00:00,260.0,267.0,9.58,10.72,,47.59359,-54.27349
2018-01-01 23:50:00+00:00,270.0,274.0,8.23,9.05,,47.59359,-54.27349
